EW2785 Weather Reports


time (UTC)temp
F
wind
direction
speed
knots
gust
knots
rain 1hr
in
rain 24hr
in
rain mn
in
humidity
%
barometer
mb
20260508120041 38 181 0.0 3.5 0.00 0.00 0.00 90 1010.4
20260508114538 37 355 0.0 1.7 0.00 0.00 0.00 91 1010.4
20260508113035 36 355 0.0 0.9 0.00 0.00 0.00 91 1010.3
20260508111539 35 355 0.0 0.9 0.00 0.00 0.00 91 1010.2
20260508110034 34 355 0.0 0.0 0.00 0.00 0.00 91 1010.1
20260508104530 33 355 0.0 0.0 0.00 0.00 0.00 91 1010.0
20260508103040 32 355 0.0 0.0 0.00 0.00 0.00 90 1009.9
20260508101527 32 355 0.0 0.0 0.00 0.00 0.00 91 1009.7
20260508100029 32 355 0.0 0.0 0.00 0.00 0.00 90 1009.5
20260508094523 32 355 0.0 1.7 0.00 0.00 0.00 90 1009.3
20260508093030 32 355 0.0 1.7 0.00 0.00 0.00 90 1009.3
20260508091521 32 355 0.0 1.7 0.00 0.00 0.00 90 1009.3
20260508090022 31 355 0.0 0.9 0.00 0.00 0.00 90 1009.2
20260508084519 31 355 0.0 0.0 0.00 0.00 0.00 89 1009.1
20260508083019 31 355 0.0 1.7 0.00 0.00 0.00 89 1009.0
20260508081519 31 355 0.0 0.9 0.00 0.00 0.00 88 1008.9
20260508080018 31 355 0.0 0.9 0.00 0.00 0.00 88 1008.9
20260508074517 31 355 0.0 0.9 0.00 0.00 0.00 87 1009.0
20260508073015 31 355 0.0 0.0 0.00 0.00 0.00 86 1008.8
20260508071516 31 355 0.0 0.0 0.00 0.00 0.00 86 1008.8
20260508070012 32 355 0.0 0.9 0.00 0.00 0.00 86 1008.9
20260508064511 32 355 0.0 0.0 0.00 0.00 0.00 85 1008.8
20260508063009 32 355 0.0 0.0 0.00 0.00 0.00 85 1008.9
20260508061507 33 355 0.0 0.0 0.00 0.00 0.00 85 1008.9
20260508060006 33 355 0.0 0.0 0.00 0.00 0.00 85 1008.9
20260508054510 34 355 0.0 0.0 0.00 0.00 0.00 85 1008.9
20260508053003 34 355 0.0 0.9 0.00 0.00 0.00 85 1008.9
20260508051501 34 355 0.0 0.0 0.00 0.00 0.00 83 1009.1
20260508050100 34 355 0.0 0.0 0.00 0.00 0.00 83 1009.0
20260508044557 34 355 0.0 0.0 0.00 0.00 0.00 82 1009.2
20260508043100 35 355 0.0 0.9 0.00 0.00 0.00 80 1009.3
20260508041553 35 355 0.0 0.0 0.00 0.00 0.00 79 1009.2
20260508040049 36 355 0.0 0.9 0.00 0.00 0.00 78 1009.2
20260508034551 37 355 0.0 0.0 0.00 0.00 0.00 77 1009.1
20260508033045 37 355 0.0 0.0 0.00 0.00 0.00 75 1009.1
20260508031543 38 355 0.0 0.0 0.00 0.00 0.00 74 1009.0
20260508030043 39 355 0.0 0.9 0.00 0.00 0.00 72 1009.1
20260508024542 40 355 0.0 0.9 0.00 0.00 0.00 71 1009.0
20260508023034 41 355 0.0 0.9 0.00 0.00 0.00 68 1009.0
20260508021530 42 355 0.0 1.7 0.00 0.00 0.00 66 1008.9
20260508020031 44 349 0.9 1.7 0.00 0.04 0.00 62 1008.8
20260508014536 45 348 0.0 0.9 0.00 0.04 0.00 56 1008.5
20260508013029 46 348 0.0 2.6 0.00 0.04 0.00 54 1008.6
20260508011529 47 273 0.0 6.1 0.00 0.04 0.00 49 1008.5
20260508010044 47 177 0.0 1.7 0.00 0.07 0.00 49 1008.3
20260508004531 47 306 0.0 3.5 0.00 0.07 0.00 47 1008.2
20260508003028 48 215 0.0 2.6 0.00 0.07 0.00 46 1008.0
20260508001529 49 236 0.0 2.6 0.00 0.07 0.00 45 1007.9
20260508000026 50 298 0.0 3.5 0.00 0.11 0.00 45 1007.8
20260507234527 50 223 0.0 3.5 0.00 0.11 0.00 43 1007.7
20260507233028 51 192 0.0 6.1 0.00 0.11 0.00 41 1007.4
20260507231525 52 142 1.7 10.4 0.00 0.11 0.00 39 1007.4
20260507230032 53 181 1.7 8.7 0.00 0.12 0.00 39 1007.3
20260507224524 53 238 2.6 10.4 0.00 0.12 0.00 40 1007.3
20260507223024 54 283 0.0 6.1 0.00 0.12 0.00 38 1007.2
20260507221524 55 207 1.7 8.7 0.00 0.12 0.00 37 1007.1
20260507220025 55 171 0.9 9.6 0.00 0.12 0.00 38 1007.0
20260507214522 56 169 3.5 10.4 0.00 0.12 0.00 36 1007.0
20260507213023 56 213 0.9 6.1 0.00 0.12 0.00 38 1006.8
20260507211533 56 243 3.5 12.2 0.00 0.12 0.00 37 1006.8
20260507210020 56 197 2.6 7.8 0.00 0.15 0.00 38 1006.8
20260507204523 56 182 1.7 7.0 0.00 0.15 0.00 38 1006.8
20260507203023 55 200 0.9 5.2 0.00 0.15 0.00 42 1006.7
20260507201518 56 159 0.9 9.6 0.00 0.15 0.00 38 1006.7
20260507200016 54 175 0.9 7.0 0.00 0.22 0.00 41 1006.9
20260507194516 56 209 0.9 10.4 0.00 0.22 0.00 38 1007.0
20260507193014 56 255 0.9 7.8 0.00 0.22 0.00 41 1007.2
20260507191514 56 191 2.6 10.4 0.00 0.22 0.00 40 1007.3
20260507190012 56 176 0.9 4.3 0.00 0.30 0.00 44 1007.3
20260507184508 55 173 2.6 10.4 0.00 0.30 0.00 45 1007.7
20260507183012 54 167 6.1 11.3 0.00 0.30 0.00 43 1007.7
20260507181507 54 180 0.9 8.7 0.00 0.30 0.00 42 1007.8
20260507180006 55 207 1.7 8.7 0.00 0.42 0.00 44 1007.9
20260507174506 54 192 4.3 8.7 0.00 0.42 0.00 43 1007.8
20260507173006 54 202 0.9 20.9 0.00 0.42 0.00 44 1007.9
20260507171612 54 165 2.6 12.2 0.00 0.42 0.00 42 1008.1
20260507170058 52 224 2.6 13.9 0.00 0.55 0.00 44 1008.4
20260507164557 53 166 5.2 17.4 0.00 0.55 0.00 44 1008.7
20260507163059 53 277 2.6 16.5 0.00 0.55 0.00 44 1008.8
20260507161556 52 196 1.7 11.3 0.00 0.55 0.00 48 1008.9
20260507160054 51 236 3.5 13.0 0.00 0.67 0.00 56 1009.2
20260507154550 51 202 4.3 10.4 0.00 0.67 0.00 49 1009.5
20260507153056 51 355 1.7 10.4 0.00 0.67 0.00 51 1009.7
20260507151548 50 299 1.7 13.9 0.00 0.67 0.00 53 1009.8
20260507150043 49 221 3.5 12.2 0.00 0.77 0.00 52 1009.7
20260507144540 49 192 1.7 7.8 0.00 0.77 0.00 56 1009.6
20260507143040 48 192 0.9 6.1 0.00 0.77 0.00 61 1009.5
20260507141542 47 190 0.9 7.8 0.00 0.77 0.00 66 1009.7
20260507140032 47 173 1.7 5.2 0.00 0.86 0.00 69 1009.7
20260507134529 46 214 1.7 7.0 0.00 0.86 0.00 70 1009.6
20260507133027 46 149 0.9 8.7 0.00 0.86 0.00 72 1009.7
20260507131526 45 320 0.0 7.8 0.00 0.86 0.00 76 1009.7
20260507130026 45 215 0.9 8.7 0.00 0.91 0.00 79 1009.5
20260507124526 44 212 2.6 12.2 0.00 0.91 0.00 85 1009.3
20260507123015 44 286 1.7 4.3 0.00 0.91 0.00 91 1009.1
20260507121513 44 190 1.7 4.3 0.00 0.91 0.00 93 1009.3